Location: Dittelbrunn
(50.0738°N, 10.2196°E)
Time: 02:14:49
(UTC+00:00)

Cosmos 1782 Rocket - Pass Details

Date: 18 September 2020
Orbit: 606 x 632 km, 82.5° (Epoch: 30 October)

Event Time Altitude Azimuth Distance (km) Brightness Sun altitude
Rises 18:43:07 0° 200° (SSW) 2,884 7.0 -13.1°
Reaches altitude 10° 18:45:21 10° 205° (SSW) 1,988 6.2 -13.4°
Maximum altitude 18:49:41 55° 284° (WNW) 753 4.4 -14.1°
Drops below altitude 10° 18:54:06 10° 3° (N) 2,019 6.4 -14.7°
Sets 18:56:24 0° 7° (N) 2,934 7.2 -15.1°
